EN

Hourly Weather Alphen aan den Rijn

Today, 23 January, Saturday

Time Temperature Precipitation Wind Pressure Humidity
00:00 +2°C° 0 mm 2 mps 746 mmHg 88%
01:00 +2°C° 0 mm 2 mps 746 mmHg 89%
02:00 +1°C° 0 mm 2 mps 746 mmHg 89%
03:00 +1°C° 0 mm 2 mps 745 mmHg 89%
04:00 +1°C° 0 mm 2 mps 745 mmHg 89%
05:00 0°C° 0 mm 3 mps 745 mmHg 89%
06:00 0°C° 0 mm 3 mps 745 mmHg 89%
07:00 0°C° 0.9 mm 3 mps 745 mmHg 91%
08:00 +1°C° 0.9 mm 3 mps 745 mmHg 93%
09:00 +1°C° 0.9 mm 3 mps 745 mmHg 95%
10:00 +1°C° 0.5 mm 3 mps 745 mmHg 94%
11:00 +2°C° 0.5 mm 3 mps 745 mmHg 92%
12:00 +3°C° 0.5 mm 2 mps 745 mmHg 91%
13:00 +3°C° 0.2 mm 2 mps 745 mmHg 91%
14:00 +2°C° 0.2 mm 3 mps 745 mmHg 92%
15:00 +2°C° 0.2 mm 3 mps 745 mmHg 93%
16:00 +1°C° 0 mm 4 mps 745 mmHg 91%
17:00 +1°C° 0 mm 4 mps 746 mmHg 90%
18:00 0°C° 0 mm 4 mps 746 mmHg 88%
19:00 0°C° 0 mm 4 mps 746 mmHg 87%
20:00 +1°C° 0 mm 3 mps 746 mmHg 87%
21:00 +1°C° 0 mm 3 mps 746 mmHg 86%
22:00 +2°C° 0.1 mm 2 mps 747 mmHg 87%
23:00 +2°C° 0.1 mm 2 mps 747 mmHg 87%

Tomorrow, 24 January, Sunday

Time Temperature Precipitation Wind Pressure Humidity
00:00 +2°C° 0.1 mm 2 mps 747 mmHg 88%
01:00 +2°C° 0.1 mm 2 mps 747 mmHg 86%
02:00 +2°C° 0.1 mm 2 mps 747 mmHg 84%
03:00 0°C° 0.1 mm 3 mps 747 mmHg 82%
04:00 +1°C° 0 mm 2 mps 748 mmHg 80%
05:00 +1°C° 0 mm 2 mps 748 mmHg 79%
06:00 +1°C° 0 mm 2 mps 748 mmHg 77%
07:00 +1°C° 0 mm 2 mps 749 mmHg 76%
08:00 +1°C° 0 mm 2 mps 749 mmHg 74%
09:00 +2°C° 0 mm 2 mps 749 mmHg 72%
10:00 +3°C° 0 mm 2 mps 749 mmHg 69%
11:00 +3°C° 0 mm 2 mps 749 mmHg 66%
12:00 +4°C° 0 mm 2 mps 749 mmHg 62%
13:00 +4°C° 0 mm 2 mps 749 mmHg 64%
14:00 +4°C° 0 mm 2 mps 749 mmHg 66%
15:00 +5°C° 0 mm 1 mps 749 mmHg 67%
16:00 +4°C° 0 mm 1 mps 749 mmHg 69%
17:00 +3°C° 0 mm 1 mps 750 mmHg 72%
18:00 +1°C° 0 mm 0 mps 750 mmHg 74%
19:00 +1°C° 0 mm 0 mps 750 mmHg 74%
20:00 +1°C° 0 mm 0 mps 751 mmHg 74%
21:00 +1°C° 0 mm 1 mps 751 mmHg 75%
22:00 +1°C° 0 mm 1 mps 751 mmHg 76%
23:00 -1°C° 0 mm 2 mps 752 mmHg 76%

Day after tomorrow, 25 January, Monday

Time Temperature Precipitation Wind Pressure Humidity
00:00 -1°C° 0 mm 2 mps 752 mmHg 77%
01:00 -1°C° 0 mm 2 mps 752 mmHg 78%
02:00 -1°C° 0 mm 3 mps 752 mmHg 78%
03:00 -1°C° 0 mm 3 mps 753 mmHg 79%
04:00 -1°C° 0 mm 3 mps 753 mmHg 80%
05:00 -1°C° 0 mm 3 mps 753 mmHg 82%
06:00 -1°C° 0 mm 3 mps 753 mmHg 84%
07:00 -1°C° 0.3 mm 3 mps 753 mmHg 87%
08:00 -1°C° 0.3 mm 3 mps 753 mmHg 90%
09:00 0°C° 0.3 mm 3 mps 753 mmHg 93%
10:00 0°C° 0.4 mm 3 mps 754 mmHg 93%
11:00 0°C° 0.4 mm 3 mps 754 mmHg 92%
12:00 +2°C° 0.4 mm 2 mps 754 mmHg 91%
13:00 +2°C° 0 mm 2 mps 754 mmHg 89%
14:00 +3°C° 0 mm 2 mps 755 mmHg 87%
15:00 +2°C° 0 mm 3 mps 755 mmHg 85%
16:00 +2°C° 0 mm 3 mps 755 mmHg 84%
17:00 +1°C° 0 mm 3 mps 756 mmHg 83%
18:00 +1°C° 0 mm 3 mps 756 mmHg 82%
19:00 +1°C° 0 mm 3 mps 756 mmHg 85%
20:00 +1°C° 0 mm 3 mps 757 mmHg 88%
21:00 +1°C° 0 mm 2 mps 757 mmHg 91%
22:00 +2°C° 0.1 mm 2 mps 757 mmHg 92%
23:00 +1°C° 0.1 mm 3 mps 757 mmHg 92%

26 January, Tuesday

Time Temperature Precipitation Wind Pressure Humidity
00:00 +1°C° 0.1 mm 3 mps 757 mmHg 92%
01:00 +1°C° 0 mm 3 mps 758 mmHg 91%
02:00 +1°C° 0 mm 3 mps 758 mmHg 90%
03:00 +1°C° 0 mm 3 mps 758 mmHg 89%
04:00 +1°C° 0 mm 3 mps 758 mmHg 89%
05:00 +1°C° 0 mm 3 mps 759 mmHg 90%
06:00 0°C° 0 mm 4 mps 759 mmHg 90%
07:00 +1°C° 0 mm 4 mps 759 mmHg 89%
08:00 +2°C° 0 mm 3 mps 760 mmHg 87%
09:00 +3°C° 0 mm 3 mps 760 mmHg 86%
10:00 +3°C° 0 mm 4 mps 760 mmHg 84%
11:00 +4°C° 0 mm 4 mps 760 mmHg 81%
12:00 +3°C° 0 mm 5 mps 759 mmHg 79%
13:00 +3°C° 0 mm 5 mps 759 mmHg 79%
14:00 +2°C° 0 mm 5 mps 759 mmHg 79%
15:00 +2°C° 0 mm 5 mps 758 mmHg 79%
16:00 +2°C° 0.8 mm 5 mps 757 mmHg 84%
17:00 +1°C° 0.8 mm 6 mps 756 mmHg 90%
18:00 +1°C° 0.8 mm 6 mps 756 mmHg 96%
19:00 0°C° 1.5 mm 7 mps 754 mmHg 95%
20:00 +2°C° 1.5 mm 7 mps 753 mmHg 94%
21:00 +2°C° 1.5 mm 8 mps 752 mmHg 92%
22:00 +4°C° 0.4 mm 8 mps 752 mmHg 90%
23:00 +4°C° 0.4 mm 8 mps 752 mmHg 88%

27 January, Wednesday

Time Temperature Precipitation Wind Pressure Humidity
00:00 +5°C° 0.4 mm 9 mps 752 mmHg 86%
01:00 +5°C° 0.5 mm 9 mps 752 mmHg 84%
02:00 +5°C° 0.5 mm 10 mps 753 mmHg 83%
03:00 +5°C° 0.5 mm 10 mps 753 mmHg 81%
04:00 +5°C° 0 mm 10 mps 754 mmHg 82%
05:00 +5°C° 0 mm 9 mps 755 mmHg 83%
06:00 +5°C° 0 mm 8 mps 756 mmHg 83%
07:00 +5°C° 0 mm 8 mps 757 mmHg 84%
08:00 +5°C° 0 mm 7 mps 757 mmHg 84%
09:00 +5°C° 0 mm 6 mps 758 mmHg 85%
10:00 +5°C° 0 mm 6 mps 759 mmHg 83%
11:00 +5°C° 0 mm 6 mps 759 mmHg 82%
12:00 +7°C° 0 mm 6 mps 760 mmHg 81%
13:00 +6°C° 0 mm 5 mps 760 mmHg 81%
14:00 +6°C° 0 mm 5 mps 760 mmHg 82%
15:00 +6°C° 0 mm 4 mps 760 mmHg 83%
16:00 +6°C° 0 mm 4 mps 760 mmHg 85%
17:00 +5°C° 0 mm 4 mps 759 mmHg 87%
18:00 +5°C° 0 mm 4 mps 759 mmHg 90%
19:00 +5°C° 0 mm 5 mps 759 mmHg 91%
20:00 +6°C° 0 mm 5 mps 758 mmHg 92%
21:00 +5°C° 0 mm 6 mps 758 mmHg 93%
22:00 +5°C° 0.3 mm 6 mps 757 mmHg 93%
23:00 +5°C° 0.3 mm 6 mps 756 mmHg 92%

28 January, Thursday

Time Temperature Precipitation Wind Pressure Humidity
00:00 +6°C° 0.3 mm 7 mps 755 mmHg 91%
01:00 +6°C° 1.6 mm 8 mps 754 mmHg 92%
02:00 +6°C° 1.6 mm 8 mps 753 mmHg 92%
03:00 +7°C° 1.6 mm 9 mps 752 mmHg 93%
04:00 +7°C° 0.2 mm 9 mps 751 mmHg 89%
05:00 +8°C° 0.2 mm 10 mps 750 mmHg 86%
06:00 +8°C° 0.2 mm 10 mps 749 mmHg 82%
07:00 +8°C° 0 mm 11 mps 749 mmHg 80%
08:00 +8°C° 0 mm 11 mps 749 mmHg 77%
09:00 +7°C° 0 mm 11 mps 749 mmHg 75%
10:00 +7°C° 0 mm 11 mps 750 mmHg 73%
11:00 +8°C° 0 mm 11 mps 750 mmHg 70%
12:00 +8°C° 0 mm 10 mps 750 mmHg 68%
13:00 +7°C° 0 mm 10 mps 750 mmHg 71%
14:00 +7°C° 0 mm 10 mps 750 mmHg 73%
15:00 +6°C° 0 mm 9 mps 750 mmHg 76%
16:00 +6°C° 0.2 mm 9 mps 751 mmHg 76%
17:00 +6°C° 0.2 mm 9 mps 752 mmHg 76%
18:00 +6°C° 0.2 mm 9 mps 752 mmHg 76%
Show more